Kezdőlap
METAR-TAF:

METAR-TAF

Repülőterek :

Lawrence Municipal Airport

Lawrence, Kansas, Amerikai Egyesült Államok

földrajzi szélesség: 39-00-30N, földrajzi hosszúság: 095-12-42W, magasság: 253 m

Jelenlegi meteorológiai megfigyelések

A jelentés 19 perccel ezelõtt készült, 09:52 UTC
Kelet-északkeleti szél 3 kt
Hőmérséklet 13°C
Páratartalom 88%
Légköri nyomás 1015 hPa
Látótávolság: 16.1 km
Derült ég

METAR: KLWC 170952Z AUTO 07003KT 10SM CLR 13/11 A2997 RMK AO1 SLP143 T01280106

Idő: 05:11 (10:11 UTC)


TAF: hiányzik

Meteorológiai megfigyelések és előrejelzések több, mint 4000 repülőtéren (METAR és TAF jelentéseket).

A térképen piros és sárga pontok jelzik az elérhető meteorológiai állomásokat.

Mozgassa az egeret a pont fölött, hogy megjelenjen az állomás neve.

Azután kattintson az időjárási megfigyelések és előrejelzések megtekintéséhez.

A térkép megváltoztatása: kattintson a fekete keresztel jelölt zöld gombra ráközelítéshez, a vonallal jelölt zöld gombra távolításhoz, vagy a zöld nyilakra a szomszédos térképek eléréséhez.


METAR-TAF: